| time (UTC) | temp F | wind direction | speed knots | gust knots | rain 1hr in | rain 24hr in | rain mn in | humidity % | barometer mb |
| 20260505184039 | 81 | 259 | 4.3 | 6.1 | 0.00 | 0.03 | 0.03 | 36 | 1000.9 |
| 20260505183536 | 81 | 256 | 7.0 | 11.3 | 0.00 | 0.03 | 0.03 | 35 | 1001.1 |
| 20260505183033 | 80 | 236 | 0.9 | 1.7 | 0.00 | 0.03 | 0.03 | 36 | 1001.2 |
| 20260505182529 | 78 | 205 | 3.5 | 4.3 | 0.00 | 0.03 | 0.03 | 37 | 1001.3 |
| 20260505182026 | 79 | 186 | 5.2 | 7.0 | 0.00 | 0.03 | 0.03 | 37 | 1001.1 |
| 20260505181523 | 79 | 351 | 4.3 | 6.1 | 0.00 | 0.03 | 0.03 | 37 | 1001.3 |
| 20260505181021 | 80 | 282 | 2.6 | 4.3 | 0.00 | 0.03 | 0.03 | 36 | 1001.4 |
| 20260505180516 | 79 | 238 | 2.6 | 2.6 | 0.00 | 0.03 | 0.03 | 41 | 1001.5 |
| 20260505180015 | 80 | 77 | 2.6 | 2.6 | 0.00 | 0.03 | 0.03 | 39 | 1001.5 |
| 20260505175509 | 80 | 234 | 4.3 | 7.0 | 0.00 | 0.03 | 0.03 | 38 | 1001.5 |
| 20260505175006 | 80 | 175 | 6.1 | 9.6 | 0.00 | 0.03 | 0.03 | 37 | 1001.5 |
| 20260505174503 | 80 | 246 | 2.6 | 4.3 | 0.00 | 0.03 | 0.03 | 38 | 1001.5 |
| 20260505173959 | 81 | 239 | 3.5 | 5.2 | 0.00 | 0.03 | 0.03 | 41 | 1001.5 |
| 20260505173455 | 81 | 214 | 4.3 | 6.1 | 0.00 | 0.03 | 0.03 | 36 | 1001.3 |
| 20260505172952 | 81 | 262 | 3.5 | 5.2 | 0.00 | 0.03 | 0.03 | 37 | 1001.6 |
| 20260505172451 | 81 | 205 | 5.2 | 7.8 | 0.00 | 0.03 | 0.03 | 37 | 1001.7 |
| 20260505171950 | 81 | 264 | 2.6 | 4.3 | 0.00 | 0.03 | 0.03 | 36 | 1001.7 |
| 20260505171447 | 81 | 61 | 3.5 | 4.3 | 0.00 | 0.03 | 0.03 | 38 | 1001.9 |
| 20260505170944 | 79 | 264 | 5.2 | 7.0 | 0.00 | 0.03 | 0.03 | 39 | 1001.5 |
| 20260505170441 | 80 | 354 | 4.3 | 6.1 | 0.00 | 0.03 | 0.03 | 38 | 1001.9 |
| 20260505165936 | 82 | 166 | 3.5 | 7.0 | 0.00 | 0.03 | 0.03 | 36 | 1001.9 |
| 20260505165432 | 80 | 340 | 2.6 | 2.6 | 0.00 | 0.03 | 0.03 | 39 | 1001.9 |
| 20260505164928 | 81 | 218 | 4.3 | 7.0 | 0.00 | 0.03 | 0.03 | 39 | 1002.0 |
| 20260505164425 | 81 | 223 | 5.2 | 6.1 | 0.00 | 0.03 | 0.03 | 38 | 1001.9 |
| 20260505163922 | 81 | 204 | 7.0 | 9.6 | 0.00 | 0.03 | 0.03 | 39 | 1002.1 |
| 20260505163421 | 81 | 72 | 4.3 | 8.7 | 0.00 | 0.03 | 0.03 | 39 | 1002.3 |
| 20260505162920 | 81 | 148 | 3.5 | 5.2 | 0.00 | 0.03 | 0.03 | 38 | 1002.3 |
| 20260505162415 | 81 | 321 | 6.1 | 9.6 | 0.00 | 0.03 | 0.03 | 38 | 1002.2 |
| 20260505161912 | 81 | 238 | 0.9 | 1.7 | 0.00 | 0.03 | 0.03 | 39 | 1002.3 |
| 20260505161409 | 79 | 40 | 1.7 | 1.7 | 0.00 | 0.03 | 0.03 | 41 | 1002.2 |
| 20260505160907 | 78 | 204 | 5.2 | 7.0 | 0.00 | 0.03 | 0.03 | 42 | 1002.5 |
| 20260505160405 | 80 | 212 | 0.9 | 0.9 | 0.00 | 0.03 | 0.03 | 42 | 1002.5 |
| 20260505153343 | 78 | 175 | 3.5 | 5.2 | 0.00 | 0.03 | 0.03 | 43 | 1003.3 |
| 20260505152841 | 77 | 225 | 1.7 | 2.6 | 0.00 | 0.03 | 0.03 | 46 | 1003.2 |
| 20260505152338 | 78 | 284 | 3.5 | 6.1 | 0.00 | 0.03 | 0.03 | 45 | 1003.4 |
| 20260505151837 | 78 | 187 | 3.5 | 4.3 | 0.00 | 0.03 | 0.03 | 44 | 1002.9 |
| 20260505151334 | 77 | 55 | 3.5 | 6.1 | 0.00 | 0.03 | 0.03 | 45 | 1003.2 |
| 20260505150831 | 77 | 246 | 4.3 | 7.0 | 0.00 | 0.03 | 0.03 | 47 | 1003.1 |
| 20260505150323 | 78 | 77 | 3.5 | 5.2 | 0.00 | 0.03 | 0.03 | 48 | 1003.1 |
| 20260505140247 | 68 | 237 | 1.7 | 2.6 | 0.00 | 0.03 | 0.03 | 58 | 1003.5 |
| 20260505130211 | 67 | 77 | 0.9 | 0.9 | 0.00 | 0.03 | 0.03 | 61 | 1004.3 |
| 20260505124701 | 68 | 55 | 0.0 | 0.9 | 0.00 | 0.03 | 0.03 | 61 | 1004.3 |
| 20260505124157 | 67 | 220 | 0.9 | 1.7 | 0.00 | 0.03 | 0.03 | 62 | 1004.0 |
| 20260505123653 | 68 | 47 | 2.6 | 2.6 | 0.00 | 0.03 | 0.03 | 61 | 1004.3 |
| 20260505123150 | 68 | 92 | 1.7 | 2.6 | 0.00 | 0.03 | 0.03 | 62 | 1004.2 |
| 20260505122647 | 67 | 175 | 0.9 | 0.9 | 0.00 | 0.03 | 0.03 | 62 | 1004.2 |
| 20260505122144 | 67 | 219 | 4.3 | 6.1 | 0.00 | 0.03 | 0.03 | 63 | 1004.4 |
| 20260505121641 | 66 | 84 | 1.7 | 1.7 | 0.00 | 0.03 | 0.03 | 65 | 1004.4 |
| 20260505121137 | 66 | 104 | 0.9 | 1.7 | 0.00 | 0.03 | 0.03 | 65 | 1004.4 |
| 20260505120633 | 65 | 40 | 0.9 | 1.7 | 0.00 | 0.03 | 0.03 | 67 | 1004.4 |
| 20260505120129 | 64 | 207 | 0.9 | 2.6 | 0.00 | 0.03 | 0.03 | 72 | 1004.5 |
| 20260505115624 | 63 | 41 | 2.6 | 4.3 | 0.00 | 0.03 | 0.03 | 69 | 1004.3 |
| 20260505115122 | 62 | 209 | 0.9 | 1.7 | 0.00 | 0.03 | 0.03 | 75 | 1004.4 |
| 20260505114618 | 62 | 85 | 0.9 | 0.9 | 0.00 | 0.03 | 0.03 | 74 | 1004.4 |
| 20260505114115 | 61 | 84 | 0.9 | 0.9 | 0.00 | 0.03 | 0.03 | 76 | 1004.6 |
| 20260505113611 | 60 | 62 | 0.9 | 0.9 | 0.00 | 0.03 | 0.03 | 80 | 1004.3 |
| 20260505113108 | 59 | 86 | 0.0 | 0.0 | 0.00 | 0.03 | 0.03 | 82 | 1004.5 |
| 20260505112604 | 57 | 63 | 0.0 | 0.0 | 0.00 | 0.03 | 0.03 | 88 | 1004.5 |
| 20260505112102 | 57 | 83 | 0.0 | 0.0 | 0.00 | 0.03 | 0.03 | 91 | 1004.4 |
| 20260505111556 | 56 | 63 | 0.0 | 0.0 | 0.00 | 0.03 | 0.03 | 92 | 1004.4 |
| 20260505111052 | 56 | 69 | 0.0 | 0.0 | 0.00 | 0.03 | 0.03 | 92 | 1004.2 |
| 20260505110549 | 55 | 53 | 0.0 | 0.0 | 0.00 | 0.03 | 0.03 | 94 | 1004.1 |
| 20260505102021 | 53 | 46 | 0.9 | 0.9 | 0.00 | 0.03 | 0.03 | 97 | 1003.8 |
| 20260505101520 | 54 | 52 | 0.0 | 0.9 | 0.00 | 0.03 | 0.03 | 97 | 1003.8 |
| 20260505101016 | 53 | 48 | 0.9 | 0.9 | 0.00 | 0.03 | 0.03 | 96 | 1003.7 |
| 20260505100513 | 54 | 58 | 0.0 | 0.0 | 0.00 | 0.03 | 0.03 | 95 | 1003.6 |
| 20260505100010 | 54 | 15 | 0.9 | 0.9 | 0.00 | 0.03 | 0.03 | 92 | 1003.6 |
| 20260505095506 | 55 | 94 | 0.0 | 0.0 | 0.17 | 0.03 | 0.03 | 90 | 1003.2 |
| 20260505095002 | 57 | 2 | 1.7 | 1.7 | 0.17 | 0.03 | 0.03 | 82 | 1003.5 |
| 20260505094459 | 58 | 133 | 0.9 | 1.7 | 0.05 | 0.01 | 0.01 | 75 | 1004.0 |
| 20260505093955 | 58 | 217 | 2.6 | 2.6 | 0.00 | 0.00 | 0.00 | 71 | 1004.0 |
| 20260505093452 | 58 | 63 | 0.0 | 0.9 | 0.00 | 0.00 | 0.00 | 70 | 1004.1 |
| 20260505092949 | 57 | 124 | 0.9 | 0.9 | 0.00 | 0.00 | 0.00 | 70 | 1004.0 |
| 20260505092446 | 55 | 58 | 0.0 | 0.0 | 0.00 | 0.00 | 0.00 | 72 | 1003.9 |
| 20260505091944 | 55 | 3 | 1.7 | 1.7 | 0.00 | 0.00 | 0.00 | 73 | 1003.7 |
| 20260505091441 | 56 | 82 | 0.0 | 0.0 | 0.00 | 0.00 | 0.00 | 71 | 1003.5 |
| 20260505090939 | 55 | 55 | 0.0 | 0.0 | 0.00 | 0.00 | 0.00 | 71 | 1003.6 |
| 20260505090437 | 55 | 54 | 0.0 | 0.9 | 0.00 | 0.00 | 0.00 | 71 | 1003.6 |
| 20260505085934 | 56 | 57 | 0.0 | 0.0 | 0.00 | 0.00 | 0.00 | 70 | 1003.4 |
| 20260505085432 | 56 | 60 | 0.0 | 0.0 | 0.00 | 0.00 | 0.00 | 69 | 1003.4 |
| 20260505084930 | 54 | 52 | 0.0 | 0.9 | 0.00 | 0.00 | 0.00 | 73 | 1003.4 |
| 20260505084428 | 54 | 50 | 0.0 | 0.0 | 0.00 | 0.00 | 0.00 | 74 | 1003.4 |
| 20260505083926 | 54 | 50 | 0.0 | 0.0 | 0.00 | 0.00 | 0.00 | 74 | 1003.5 |
| 20260505083423 | 53 | 45 | 0.9 | 0.9 | 0.00 | 0.00 | 0.00 | 76 | 1003.5 |
| 20260505082919 | 52 | 50 | 0.0 | 0.0 | 0.00 | 0.00 | 0.00 | 82 | 1003.6 |
| 20260505082415 | 51 | 34 | 0.9 | 0.9 | 0.00 | 0.00 | 0.00 | 82 | 1003.5 |
| 20260505081912 | 51 | 31 | 0.9 | 0.9 | 0.00 | 0.00 | 0.00 | 81 | 1003.6 |
| 20260505081409 | 52 | 32 | 0.0 | 0.9 | 0.00 | 0.00 | 0.00 | 81 | 1003.7 |
| 20260505080905 | 52 | 34 | 0.0 | 0.9 | 0.00 | 0.00 | 0.00 | 79 | 1003.8 |
| 20260505080401 | 51 | 30 | 0.9 | 0.9 | 0.00 | 0.00 | 0.00 | 79 | 1003.8 |
| 20260505075857 | 51 | 32 | 0.0 | 0.9 | 0.00 | 0.00 | 0.00 | 82 | 1003.5 |
| 20260505075354 | 51 | 27 | 0.9 | 0.9 | 0.00 | 0.00 | 0.00 | 83 | 1003.8 |
| 20260505074851 | 51 | 46 | 0.9 | 0.9 | 0.00 | 0.00 | 0.00 | 83 | 1003.8 |
| 20260505074348 | 50 | 30 | 0.9 | 0.9 | 0.00 | 0.00 | 0.00 | 84 | 1003.7 |
| 20260505073846 | 50 | 19 | 0.9 | 0.9 | 0.00 | 0.00 | 0.00 | 84 | 1003.6 |
| 20260505073344 | 51 | 25 | 0.9 | 0.9 | 0.00 | 0.00 | 0.00 | 84 | 1003.5 |
| 20260505072840 | 50 | 52 | 0.0 | 0.9 | 0.00 | 0.00 | 0.00 | 83 | 1003.7 |
| 20260505072336 | 51 | 66 | 0.0 | 0.0 | 0.00 | 0.00 | 0.00 | 82 | 1003.5 |
| 20260505071832 | 51 | 51 | 0.0 | 0.9 | 0.00 | 0.00 | 0.00 | 80 | 1003.5 |
| 20260505071329 | 51 | 67 | 0.9 | 0.9 | 0.00 | 0.00 | 0.00 | 80 | 1003.7 |
| 20260505070828 | 50 | 338 | 1.7 | 1.7 | 0.00 | 0.00 | 0.00 | 81 | 1003.5 |
| 20260505070323 | 50 | 30 | 0.9 | 0.9 | 0.00 | 0.00 | 0.00 | 80 | 1003.4 |
| 20260505065819 | 50 | 93 | 0.0 | 0.9 | 0.00 | 0.00 | 0.00 | 80 | 1003.8 |
| 20260505065316 | 50 | 38 | 0.9 | 0.9 | 0.00 | 0.00 | 0.00 | 80 | 1003.6 |
| 20260505064813 | 51 | 25 | 0.9 | 0.9 | 0.00 | 0.00 | 0.00 | 80 | 1003.5 |
| 20260505064310 | 51 | 39 | 0.9 | 0.9 | 0.00 | 0.00 | 0.00 | 80 | 1003.6 |
| 20260505063808 | 52 | 358 | 0.9 | 1.7 | 0.00 | 0.00 | 0.00 | 79 | 1003.7 |
| 20260505063304 | 52 | 25 | 0.9 | 0.9 | 0.00 | 0.00 | 0.00 | 76 | 1003.7 |
| 20260505062800 | 53 | 100 | 0.9 | 0.9 | 0.00 | 0.00 | 0.00 | 71 | 1003.8 |
| 20260505062258 | 53 | 45 | 0.0 | 0.0 | 0.00 | 0.00 | 0.00 | 76 | 1003.7 |
| 20260505061755 | 53 | 161 | 1.7 | 1.7 | 0.00 | 0.00 | 0.00 | 73 | 1003.6 |
| 20260505061253 | 52 | 21 | 0.9 | 1.7 | 0.00 | 0.00 | 0.00 | 76 | 1003.7 |
| 20260505060750 | 52 | 78 | 0.0 | 0.9 | 0.00 | 0.00 | 0.00 | 75 | 1003.9 |
| 20260505060247 | 53 | 64 | 0.0 | 0.0 | 0.00 | 0.00 | 0.00 | 70 | 1003.8 |
| 20260505055742 | 52 | 38 | 0.0 | 0.9 | 0.00 | 0.00 | 0.00 | 78 | 1003.9 |
| 20260505055239 | 51 | 54 | 0.9 | 0.9 | 0.00 | 0.00 | 0.00 | 76 | 1003.8 |
| 20260505054736 | 51 | 56 | 0.9 | 0.9 | 0.00 | 0.00 | 0.00 | 83 | 1003.7 |
| 20260505054234 | 51 | 47 | 0.9 | 0.9 | 0.00 | 0.00 | 0.00 | 82 | 1003.8 |
| 20260505053732 | 52 | 47 | 0.9 | 0.9 | 0.00 | 0.00 | 0.00 | 80 | 1003.9 |
| 20260505053228 | 52 | 39 | 0.0 | 0.0 | 0.00 | 0.00 | 0.00 | 80 | 1004.0 |
| 20260505052725 | 53 | 46 | 0.9 | 0.9 | 0.00 | 0.00 | 0.00 | 71 | 1004.0 |
| 20260505052222 | 53 | 58 | 0.0 | 0.0 | 0.00 | 0.00 | 0.00 | 73 | 1004.0 |
| 20260505051719 | 54 | 39 | 0.0 | 0.0 | 0.00 | 0.00 | 0.00 | 74 | 1004.2 |
| 20260505051217 | 54 | 39 | 0.0 | 0.0 | 0.00 | 0.00 | 0.00 | 74 | 1004.1 |
| 20260505050715 | 55 | 38 | 0.0 | 0.9 | 0.00 | 0.00 | 0.00 | 69 | 1004.0 |
| 20260505050213 | 56 | 23 | 0.9 | 0.9 | 0.00 | 0.00 | 0.00 | 69 | 1004.1 |
| 20260505041642 | 52 | 52 | 0.0 | 0.0 | 0.00 | 0.00 | 0.00 | 74 | 1004.1 |
| 20260505041140 | 53 | 341 | 1.7 | 1.7 | 0.00 | 0.00 | 0.00 | 75 | 1004.1 |
| 20260505040637 | 53 | 17 | 0.9 | 0.9 | 0.00 | 0.00 | 0.00 | 73 | 1004.0 |
| 20260505040134 | 53 | 16 | 0.0 | 0.9 | 0.00 | 0.00 | 0.00 | 74 | 1004.1 |
| 20260505035630 | 53 | 28 | 0.9 | 0.9 | 0.00 | 0.00 | 0.00 | 73 | 1004.0 |
| 20260505035126 | 54 | 29 | 0.9 | 0.9 | 0.00 | 0.00 | 0.00 | 72 | 1004.1 |
| 20260505034623 | 53 | 7 | 0.9 | 1.7 | 0.00 | 0.00 | 0.00 | 75 | 1004.0 |
| 20260505034120 | 53 | 45 | 0.9 | 0.9 | 0.00 | 0.00 | 0.00 | 72 | 1004.0 |
| 20260505033617 | 54 | 45 | 0.0 | 0.0 | 0.00 | 0.00 | 0.00 | 71 | 1004.1 |
| 20260505033116 | 54 | 33 | 0.9 | 0.9 | 0.00 | 0.00 | 0.00 | 68 | 1003.9 |
| 20260505032613 | 54 | 45 | 0.9 | 0.9 | 0.00 | 0.00 | 0.00 | 67 | 1003.9 |
| 20260505032109 | 53 | 45 | 0.9 | 0.9 | 0.00 | 0.00 | 0.00 | 68 | 1003.9 |
| 20260505031607 | 54 | 45 | 0.0 | 0.9 | 0.00 | 0.00 | 0.00 | 69 | 1004.1 |
| 20260505031103 | 54 | 347 | 1.7 | 1.7 | 0.00 | 0.00 | 0.00 | 67 | 1004.0 |
| 20260505030600 | 53 | 42 | 0.9 | 0.9 | 0.00 | 0.00 | 0.00 | 70 | 1004.0 |
| 20260505030055 | 53 | 46 | 0.0 | 0.0 | 0.00 | 0.00 | 0.00 | 74 | 1004.0 |
| 20260505025551 | 52 | 39 | 0.9 | 0.9 | 0.00 | 0.00 | 0.00 | 74 | 1004.1 |
| 20260505025051 | 52 | 19 | 0.9 | 0.9 | 0.00 | 0.00 | 0.00 | 75 | 1004.0 |
| 20260505024547 | 52 | 17 | 0.9 | 0.9 | 0.00 | 0.00 | 0.00 | 75 | 1004.2 |
| 20260505024044 | 52 | 6 | 1.7 | 1.7 | 0.00 | 0.00 | 0.00 | 75 | 1004.0 |
| 20260505023541 | 53 | 32 | 0.9 | 0.9 | 0.00 | 0.00 | 0.00 | 75 | 1004.0 |
| 20260505023039 | 53 | 13 | 0.9 | 0.9 | 0.00 | 0.00 | 0.00 | 75 | 1004.1 |
| 20260505022536 | 53 | 39 | 0.0 | 0.9 | 0.00 | 0.00 | 0.00 | 74 | 1004.2 |
| 20260505022033 | 53 | 34 | 0.9 | 0.9 | 0.00 | 0.00 | 0.00 | 78 | 1004.1 |
| 20260505021530 | 54 | 42 | 0.0 | 0.9 | 0.00 | 0.00 | 0.00 | 77 | 1004.0 |
| 20260505021026 | 54 | 51 | 0.9 | 0.9 | 0.00 | 0.00 | 0.00 | 72 | 1004.1 |
| 20260505020520 | 54 | 51 | 0.0 | 0.9 | 0.00 | 0.00 | 0.00 | 73 | 1004.4 |
| 20260505020018 | 54 | 47 | 0.0 | 0.9 | 0.00 | 0.00 | 0.00 | 71 | 1004.1 |
| 20260505015515 | 54 | 53 | 0.0 | 0.0 | 0.00 | 0.00 | 0.00 | 68 | 1004.1 |
| 20260505015012 | 54 | 47 | 0.9 | 0.9 | 0.00 | 0.00 | 0.00 | 68 | 1004.3 |
| 20260505014509 | 54 | 52 | 0.0 | 0.0 | 0.00 | 0.00 | 0.00 | 70 | 1004.2 |
| 20260505014006 | 54 | 41 | 0.0 | 0.9 | 0.00 | 0.00 | 0.00 | 72 | 1004.2 |
| 20260505013503 | 54 | 38 | 0.9 | 0.9 | 0.00 | 0.00 | 0.00 | 74 | 1004.2 |
| 20260505013000 | 55 | 53 | 0.0 | 0.0 | 0.00 | 0.00 | 0.00 | 72 | 1004.0 |
| 20260505012458 | 55 | 47 | 0.9 | 0.9 | 0.00 | 0.00 | 0.00 | 71 | 1004.1 |
| 20260505011955 | 55 | 36 | 0.9 | 0.9 | 0.00 | 0.00 | 0.00 | 72 | 1004.3 |
| 20260505011450 | 56 | 31 | 0.9 | 0.9 | 0.00 | 0.00 | 0.00 | 70 | 1004.0 |
| 20260505010948 | 56 | 51 | 0.0 | 0.0 | 0.00 | 0.00 | 0.00 | 69 | 1004.0 |
| 20260505010443 | 57 | 43 | 0.0 | 0.9 | 0.00 | 0.00 | 0.00 | 66 | 1004.0 |
| 20260505005940 | 57 | 47 | 0.0 | 0.9 | 0.00 | 0.00 | 0.00 | 68 | 1003.8 |
| 20260505005436 | 57 | 49 | 0.9 | 0.9 | 0.00 | 0.00 | 0.00 | 68 | 1004.0 |
| 20260505004934 | 57 | 57 | 0.0 | 0.9 | 0.00 | 0.00 | 0.00 | 65 | 1003.6 |
| 20260505004431 | 57 | 57 | 0.0 | 0.0 | 0.00 | 0.00 | 0.00 | 63 | 1003.8 |
| 20260505003928 | 58 | 57 | 0.0 | 0.0 | 0.00 | 0.00 | 0.00 | 62 | 1003.7 |
| 20260505003425 | 59 | 58 | 0.9 | 0.9 | 0.00 | 0.00 | 0.00 | 62 | 1003.6 |
| 20260505002921 | 59 | 51 | 0.9 | 0.9 | 0.00 | 0.00 | 0.00 | 55 | 1003.5 |
| 20260505002417 | 59 | 57 | 0.0 | 0.0 | 0.00 | 0.00 | 0.00 | 55 | 1003.4 |
| 20260505001916 | 60 | 58 | 0.0 | 0.0 | 0.00 | 0.00 | 0.00 | 51 | 1003.5 |
| 20260505001413 | 60 | 58 | 0.0 | 0.0 | 0.00 | 0.00 | 0.00 | 50 | 1003.5 |
| 20260505000910 | 60 | 65 | 0.0 | 0.0 | 0.00 | 0.00 | 0.00 | 51 | 1003.5 |
| 20260505000408 | 60 | 67 | 0.0 | 0.0 | 0.00 | 0.00 | 0.00 | 51 | 1003.5 |
| 20260504235904 | 62 | 67 | 0.0 | 0.0 | 0.00 | 0.00 | 0.00 | 49 | 1003.3 |
| 20260504235402 | 62 | 57 | 0.0 | 0.0 | 0.00 | 0.00 | 0.00 | 47 | 1003.4 |
| 20260504234857 | 63 | 56 | 0.0 | 0.9 | 0.00 | 0.00 | 0.00 | 49 | 1003.3 |
| 20260504234355 | 64 | 52 | 0.0 | 0.0 | 0.00 | 0.00 | 0.00 | 46 | 1003.1 |
| 20260504233852 | 64 | 66 | 0.0 | 0.0 | 0.00 | 0.00 | 0.00 | 46 | 1003.3 |
| 20260504233348 | 66 | 70 | 0.0 | 0.0 | 0.00 | 0.00 | 0.00 | 44 | 1002.7 |
| 20260504232844 | 66 | 87 | 0.0 | 0.9 | 0.00 | 0.00 | 0.00 | 42 | 1002.8 |
| 20260504232342 | 66 | 274 | 1.7 | 4.3 | 0.00 | 0.00 | 0.00 | 42 | 1002.8 |
| 20260504231838 | 67 | 199 | 0.9 | 1.7 | 0.00 | 0.00 | 0.00 | 42 | 1003.1 |
| 20260504231335 | 67 | 58 | 0.0 | 0.0 | 0.00 | 0.00 | 0.00 | 41 | 1002.7 |
| 20260504230831 | 68 | 71 | 1.7 | 1.7 | 0.00 | 0.00 | 0.00 | 41 | 1002.8 |
| 20260504230329 | 68 | 62 | 0.9 | 1.7 | 0.00 | 0.00 | 0.00 | 40 | 1002.7 |
| 20260504225828 | 68 | 237 | 1.7 | 1.7 | 0.00 | 0.00 | 0.00 | 40 | 1002.6 |
| 20260504225324 | 69 | 42 | 1.7 | 1.7 | 0.00 | 0.00 | 0.00 | 39 | 1002.7 |
| 20260504224821 | 69 | 350 | 2.6 | 2.6 | 0.00 | 0.00 | 0.00 | 39 | 1002.5 |
| 20260504224318 | 69 | 323 | 2.6 | 2.6 | 0.00 | 0.00 | 0.00 | 39 | 1002.7 |
| 20260504223815 | 69 | 230 | 1.7 | 2.6 | 0.00 | 0.00 | 0.00 | 39 | 1002.9 |
| 20260504223310 | 69 | 349 | 1.7 | 1.7 | 0.00 | 0.00 | 0.00 | 41 | 1002.5 |
| 20260504222807 | 69 | 232 | 2.6 | 2.6 | 0.00 | 0.00 | 0.00 | 39 | 1002.3 |
| 20260504222305 | 69 | 1 | 1.7 | 1.7 | 0.00 | 0.00 | 0.00 | 40 | 1002.4 |
| 20260504221802 | 69 | 244 | 1.7 | 2.6 | 0.00 | 0.00 | 0.00 | 39 | 1002.5 |
| 20260504221259 | 69 | 112 | 1.7 | 1.7 | 0.00 | 0.00 | 0.00 | 39 | 1002.5 |
| 20260504220755 | 69 | 211 | 2.6 | 4.3 | 0.00 | 0.00 | 0.00 | 38 | 1002.5 |
| 20260504220252 | 69 | 219 | 2.6 | 2.6 | 0.00 | 0.00 | 0.00 | 39 | 1002.5 |
| 20260504215750 | 69 | 339 | 0.9 | 1.7 | 0.00 | 0.00 | 0.00 | 40 | 1002.6 |
| 20260504215246 | 69 | 259 | 2.6 | 2.6 | 0.00 | 0.00 | 0.00 | 38 | 1002.5 |
| 20260504214742 | 69 | 195 | 0.9 | 0.9 | 0.00 | 0.00 | 0.00 | 39 | 1002.5 |
| 20260504214238 | 69 | 23 | 1.7 | 1.7 | 0.00 | 0.00 | 0.00 | 39 | 1002.7 |
| 20260504213735 | 70 | 277 | 1.7 | 1.7 | 0.00 | 0.00 | 0.00 | 39 | 1002.6 |
| 20260504213231 | 70 | 221 | 2.6 | 2.6 | 0.00 | 0.00 | 0.00 | 38 | 1002.5 |
| 20260504212729 | 70 | 208 | 2.6 | 4.3 | 0.00 | 0.00 | 0.00 | 37 | 1002.6 |
| 20260504212225 | 70 | 56 | 1.7 | 1.7 | 0.00 | 0.00 | 0.00 | 37 | 1002.6 |
| 20260504211723 | 70 | 38 | 2.6 | 2.6 | 0.00 | 0.00 | 0.00 | 38 | 1002.5 |
| 20260504211219 | 70 | 4 | 0.9 | 1.7 | 0.00 | 0.00 | 0.00 | 40 | 1002.3 |
| 20260504210717 | 70 | 93 | 0.9 | 0.9 | 0.00 | 0.00 | 0.00 | 40 | 1002.7 |
| 20260504210214 | 70 | 334 | 2.6 | 4.3 | 0.00 | 0.00 | 0.00 | 39 | 1002.6 |
| 20260504205711 | 70 | 157 | 2.6 | 2.6 | 0.00 | 0.00 | 0.00 | 39 | 1002.7 |
| 20260504205208 | 70 | 228 | 3.5 | 4.3 | 0.00 | 0.00 | 0.00 | 39 | 1002.9 |
| 20260504204706 | 70 | 230 | 3.5 | 6.1 | 0.00 | 0.00 | 0.00 | 39 | 1002.8 |
| 20260504204205 | 72 | 254 | 3.5 | 6.1 | 0.00 | 0.00 | 0.00 | 38 | 1002.8 |
| 20260504203703 | 72 | 51 | 1.7 | 2.6 | 0.00 | 0.00 | 0.00 | 37 | 1002.8 |
| 20260504203201 | 72 | 224 | 1.7 | 1.7 | 0.00 | 0.00 | 0.00 | 36 | 1002.9 |
| 20260504202700 | 72 | 287 | 2.6 | 4.3 | 0.00 | 0.00 | 0.00 | 38 | 1002.8 |
| 20260504202158 | 71 | 286 | 0.9 | 1.7 | 0.00 | 0.00 | 0.00 | 37 | 1003.1 |
| 20260504201654 | 70 | 232 | 2.6 | 2.6 | 0.00 | 0.00 | 0.00 | 39 | 1003.1 |
| 20260504201152 | 71 | 315 | 1.7 | 1.7 | 0.00 | 0.00 | 0.00 | 39 | 1003.1 |
| 20260504200649 | 71 | 285 | 0.9 | 0.9 | 0.00 | 0.00 | 0.00 | 38 | 1003.2 |
| 20260504200146 | 70 | 185 | 1.7 | 2.6 | 0.00 | 0.00 | 0.00 | 39 | 1003.5 |
| 20260504195642 | 71 | 305 | 1.7 | 1.7 | 0.00 | 0.00 | 0.00 | 38 | 1003.4 |
| 20260504195138 | 72 | 241 | 2.6 | 2.6 | 0.00 | 0.00 | 0.00 | 39 | 1003.4 |
| 20260504194635 | 70 | 227 | 4.3 | 6.1 | 0.00 | 0.00 | 0.00 | 39 | 1003.6 |
| 20260504194131 | 69 | 301 | 2.6 | 2.6 | 0.00 | 0.00 | 0.00 | 39 | 1003.5 |
| 20260504193627 | 71 | 298 | 3.5 | 4.3 | 0.00 | 0.00 | 0.00 | 39 | 1003.5 |
| 20260504193126 | 71 | 10 | 1.7 | 2.6 | 0.00 | 0.00 | 0.00 | 38 | 1003.4 |
| 20260504192623 | 72 | 28 | 1.7 | 2.6 | 0.00 | 0.00 | 0.00 | 38 | 1003.7 |
| 20260504192121 | 70 | 323 | 1.7 | 2.6 | 0.00 | 0.00 | 0.00 | 38 | 1003.6 |
| 20260504191620 | 71 | 290 | 3.5 | 4.3 | 0.00 | 0.00 | 0.00 | 38 | 1003.7 |
| 20260504191115 | 71 | 285 | 2.6 | 2.6 | 0.00 | 0.00 | 0.00 | 39 | 1003.6 |
| 20260504190612 | 71 | 243 | 1.7 | 2.6 | 0.00 | 0.00 | 0.00 | 38 | 1003.8 |
| 20260504190108 | 71 | 286 | 3.5 | 5.2 | 0.00 | 0.00 | 0.00 | 38 | 1003.8 |
| 20260504185605 | 71 | 16 | 2.6 | 2.6 | 0.00 | 0.00 | 0.00 | 39 | 1003.8 |
| 20260504185101 | 71 | 241 | 2.6 | 2.6 | 0.00 | 0.00 | 0.00 | 38 | 1003.8 |
| 20260504184557 | 71 | 301 | 4.3 | 5.2 | 0.00 | 0.00 | 0.00 | 40 | 1003.8 |